Skagway, AK

9:47 AM AKDT on October 22, 2017 (GMT -0800)
Skagway

Weather History for PAGY - December, 2012

Change the Weather History Date:

Saturday, December 8, 2012

  Actual Average Record
Temperature  
Mean Temperature 14 °F -  
Max Temperature 15 °F 33 °F 44 °F (2005)
Min Temperature 12 °F 25 °F -2 °F (1966)
Degree Days  
Heating Degree Days 52    
Moisture  
Dew Point 4 °F    
Average Humidity 66    
Maximum Humidity 80    
Minimum Humidity 46    
Precipitation  
Precipitation 0.00 in - - ()
Sea Level Pressure  
Sea Level Pressure 30.07 in    
Wind  
Wind Speed 16 mph (NE)    
Max Wind Speed 20 mph    
Max Gust Speed 28 mph    
Visibility 5 miles    
Events Snow    
Averages and records for this station are not official NWS values.
T = Trace of Precipitation, MM = Missing Value Source: NWS Daily Summary

Daily Weather History Graph

Daily Weather History Graph

Search for Another Location

Airport or City:

Trip Planner

Search our weather history database for the weather conditions in past years. The results will help you decide how hot, cold, wet, or windy it might be!

Date:

Astronomy

Dec. 08, 2012 Rise Set
Actual Time 8:45 AM AKST 3:01 PM AKST
Civil Twilight 7:50 AM AKST 3:56 PM AKST
Nautical Twilight 6:55 AM AKST 4:51 PM AKST
Astronomical Twilight 6:05 AM AKST 5:41 PM AKST
Moon 2:11 AM AKST (12/8) 12:36 PM AKST (12/8)
Length of Visible Light 8h 05m
Length of Day
6h 16m
Waning Crescent, 27% of the Moon is Illuminated
Dec 8
Waning Crescent
Dec 12
New
Dec 19
First Quarter
Dec 28
Full
Jan 4
Last Quarter

Hourly Weather History & Observations

Time (AKST) Temp. Windchill Dew Point Humidity Pressure Visibility Wind Dir Wind Speed Gust Speed Precip Events Conditions
12:53 AM 12.0 °F -6.0 °F -5.1 °F 46% 30.21 in 10.0 mi NE 19.6 mph 25.3 mph N/A   Overcast
1:53 AM 12.9 °F -2.2 °F -4.0 °F 47% 30.22 in 10.0 mi NE 13.8 mph - N/A   Overcast
3:53 AM 12.0 °F -2.7 °F -4.0 °F 49% 30.23 in 10.0 mi NE 12.7 mph - N/A   Overcast
4:53 AM 12.9 °F -1.6 °F -2.9 °F 49% 30.23 in 10.0 mi NE 12.7 mph - N/A   Overcast
5:53 AM 12.9 °F 2.6 °F -0.9 °F 54% 30.24 in 10.0 mi NE 6.9 mph - N/A   Mostly Cloudy
6:53 AM 12.9 °F -0.9 °F -2.0 °F 51% 30.23 in 10.0 mi NE 11.5 mph - N/A   Overcast
7:53 AM 12.9 °F -2.2 °F -0.9 °F 54% 30.23 in 10.0 mi NE 13.8 mph - N/A   Mostly Cloudy
8:53 AM 12.9 °F -2.2 °F -0.9 °F 54% 30.25 in 10.0 mi NE 13.8 mph - N/A   Overcast
9:53 AM 14.0 °F -0.2 °F -0.9 °F 52% 30.25 in 10.0 mi NNE 12.7 mph - N/A   Overcast
10:53 AM 14.0 °F -0.2 °F -0.9 °F 52% 30.25 in 10.0 mi NE 12.7 mph 21.9 mph N/A   Overcast
11:53 AM 14.0 °F -0.2 °F -0.9 °F 52% 30.24 in 10.0 mi NNE 12.7 mph - N/A   Overcast
12:53 PM 15.1 °F 0.5 °F -0.9 °F 49% 30.22 in 10.0 mi NE 13.8 mph - N/A   Overcast
1:53 PM 15.1 °F -0.1 °F -0.0 °F 51% 30.22 in 10.0 mi NE 15.0 mph - N/A   Overcast
2:53 PM 15.1 °F -1.1 °F -0.9 °F 49% 30.18 in 10.0 mi NE 17.3 mph - N/A   Overcast
3:53 PM 15.1 °F -1.6 °F -0.0 °F 51% 30.15 in 10.0 mi NE 18.4 mph - N/A   Overcast
4:53 PM 14.0 °F -3.0 °F 3.0 °F 62% 30.12 in 6.0 mi NE 18.4 mph 25.3 mph 0.00 in Snow Light Snow
5:08 PM 12.2 °F -5.8 °F 3.2 °F 67% 30.11 in 2.5 mi NE 19.6 mph - 0.00 in Snow Light Snow
5:53 PM 12.9 °F -3.9 °F 5.0 °F 71% 30.10 in 1.5 mi NE 17.3 mph - 0.00 in Snow Light Snow
6:03 PM 12.2 °F -3.7 °F 6.8 °F 79% 30.09 in 1.2 mi NNE 15.0 mph 26.5 mph 0.00 in Snow Light Snow
6:10 PM 12.2 °F -5.3 °F 6.8 °F 79% 30.08 in 1.8 mi NE 18.4 mph 26.5 mph 0.00 in Snow Light Snow
6:35 PM 12.2 °F -5.3 °F 6.8 °F 79% 30.06 in 1.2 mi NE 18.4 mph 26.5 mph 0.00 in Snow Light Snow
6:53 PM 12.9 °F -4.4 °F 7.0 °F 77% 30.04 in 1.2 mi NE 18.4 mph 25.3 mph 0.00 in Snow Light Snow
7:02 PM 12.2 °F -5.8 °F 6.8 °F 79% 30.03 in 1.8 mi NE 19.6 mph - 0.00 in Snow Light Snow
7:10 PM 12.2 °F -4.3 °F 6.8 °F 79% 30.04 in 1.8 mi NE 16.1 mph 27.6 mph 0.00 in Snow Light Snow
7:22 PM 12.2 °F -5.8 °F 6.8 °F 79% 30.03 in 1.2 mi NE 19.6 mph 24.2 mph 0.00 in Snow Light Snow
7:53 PM 12.9 °F -3.4 °F 6.1 °F 74% 30.01 in 1.8 mi NNE 16.1 mph - 0.00 in Snow Light Snow
8:09 PM 12.2 °F -4.3 °F 6.8 °F 79% 30.01 in 2.5 mi NNE 16.1 mph 23.0 mph 0.00 in Snow Light Snow
8:19 PM 14.0 °F -2.0 °F 6.8 °F 73% 29.99 in 4.0 mi NE 16.1 mph 23.0 mph 0.00 in Snow Light Snow
8:38 PM 14.0 °F -0.8 °F 6.8 °F 73% 29.98 in 1.8 mi NE 13.8 mph 23.0 mph 0.00 in Snow Light Snow
8:48 PM 12.2 °F -5.3 °F 6.8 °F 79% 29.97 in 1.0 mi NE 18.4 mph - 0.00 in Snow Light Snow
8:53 PM 12.9 °F -3.9 °F 7.0 °F 77% 29.96 in 1.0 mi NE 17.3 mph - 0.00 in Snow Light Snow
9:08 PM 12.2 °F -4.8 °F 6.8 °F 79% 29.95 in 1.8 mi NE 17.3 mph - 0.00 in Snow Light Snow
9:17 PM 14.0 °F -0.8 °F 6.8 °F 73% 29.94 in 2.5 mi NE 13.8 mph - 0.00 in Snow Light Snow
9:27 PM 14.0 °F -2.0 °F 6.8 °F 73% 29.94 in 3.0 mi NE 16.1 mph 21.9 mph 0.00 in Snow Light Snow
9:53 PM 15.1 °F 0.5 °F 6.1 °F 68% 29.91 in 3.0 mi NNE 13.8 mph 24.2 mph 0.00 in Snow Light Snow
10:26 PM 15.8 °F 0.9 °F 6.8 °F 68% 29.88 in 6.0 mi NE 15.0 mph 25.3 mph 0.00 in Snow Light Snow
10:38 PM 15.8 °F 0.9 °F 6.8 °F 68% 29.87 in 5.0 mi NE 15.0 mph 19.6 mph 0.00 in Snow Light Snow
10:53 PM 15.1 °F -0.1 °F 6.1 °F 68% 29.86 in 2.5 mi NE 15.0 mph 21.9 mph 0.00 in Snow Light Snow
11:29 PM 15.8 °F 0.3 °F 8.6 °F 73% 29.83 in 1.5 mi NE 16.1 mph 24.2 mph 0.00 in Snow Light Snow
11:42 PM 15.8 °F -1.1 °F 8.6 °F 73% 29.82 in 1.0 mi NE 19.6 mph 24.2 mph 0.00 in Snow Light Snow
11:53 PM 14.0 °F -2.5 °F 9.0 °F 80% 29.82 in 0.5 mi NE 17.3 mph 25.3 mph 0.00 in Snow Snow